TimeCDT,TemperatureF,Dew PointF,Humidity,Sea Level PressureIn,VisibilityMPH,Wind Direction,Wind SpeedMPH,Gust SpeedMPH,PrecipitationIn,Events,Conditions,WindDirDegrees,DateUTC
12:55 AM,49.8,35.2,57,30.01,10.0,NW,13.8,-,N/A,,Clear,320,2012-10-29 05:55:00
1:55 AM,48.0,35.2,61,30.01,10.0,NW,10.4,-,N/A,,Clear,320,2012-10-29 06:55:00
2:55 AM,46.4,35.1,65,30.01,10.0,NW,10.4,-,N/A,,Clear,320,2012-10-29 07:55:00
3:55 AM,45.0,34.7,67,30.01,10.0,NW,11.5,-,N/A,,Clear,320,2012-10-29 08:55:00
4:55 AM,44.2,34.3,68,30.02,10.0,NW,10.4,-,N/A,,Clear,320,2012-10-29 09:55:00
5:55 AM,42.8,34.2,72,30.03,10.0,NW,11.5,-,N/A,,Clear,320,2012-10-29 10:55:00
6:55 AM,41.9,33.8,73,30.04,10.0,NW,10.4,-,N/A,,Clear,320,2012-10-29 11:55:00
7:55 AM,43.5,34.0,69,30.06,10.0,NW,11.5,-,N/A,,Clear,320,2012-10-29 12:55:00
8:55 AM,47.8,34.0,59,30.06,10.0,NW,15.0,-,N/A,,Clear,320,2012-10-29 13:55:00
9:55 AM,51.8,32.5,48,30.06,10.0,North,17.3,25.3,N/A,,Clear,350,2012-10-29 14:55:00
10:55 AM,54.1,31.5,42,30.05,10.0,NNW,16.1,27.6,N/A,,Clear,340,2012-10-29 15:55:00
11:55 AM,57.2,28.9,34,30.02,10.0,NW,16.1,23.0,N/A,,Clear,320,2012-10-29 16:55:00
12:55 PM,59.5,28.4,31,29.98,10.0,NW,18.4,24.2,N/A,,Clear,310,2012-10-29 17:55:00
1:55 PM,61.0,29.5,30,29.95,10.0,NW,19.6,28.8,N/A,,Clear,320,2012-10-29 18:55:00
2:55 PM,61.5,29.3,30,29.93,10.0,NW,18.4,25.3,N/A,,Clear,310,2012-10-29 19:55:00
3:55 PM,61.2,28.4,29,29.93,10.0,NNW,17.3,-,N/A,,Clear,340,2012-10-29 20:55:00
4:55 PM,59.5,29.5,32,29.92,10.0,NW,20.7,26.5,N/A,,Clear,320,2012-10-29 21:55:00
5:55 PM,55.9,31.3,39,29.94,10.0,NW,16.1,-,N/A,,Clear,320,2012-10-29 22:55:00
6:55 PM,52.9,31.8,45,29.96,10.0,NW,11.5,-,N/A,,Clear,310,2012-10-29 23:55:00
7:55 PM,50.9,32.7,50,29.97,10.0,WNW,9.2,-,N/A,,Clear,300,2012-10-30 00:55:00
8:55 PM,50.2,31.8,49,29.99,10.0,WNW,10.4,-,N/A,,Clear,300,2012-10-30 01:55:00
9:55 PM,48.7,31.5,51,29.99,10.0,NW,11.5,-,N/A,,Clear,310,2012-10-30 02:55:00
10:55 PM,48.0,30.7,51,30.00,10.0,WNW,11.5,-,N/A,,Clear,300,2012-10-30 03:55:00
11:55 PM,47.3,30.0,51,29.99,10.0,NW,10.4,-,N/A,,Clear,310,2012-10-30 04:55:00